San Diego Classic - Holiday Cup - Inventory

Station: INVENTORY - T Race

Distance: 10 Miles    

Release: 04-Sep-2020 07:00

Weather Release:    Arrival:

Wind at Release:     Wind at Arrival:

Temp at Release: °    Temp at Arrival: °

Lofts: 108

Birds: 577

Clocked: 566

Good Luck to Everyone!
Drops Pos Breeder Pigeon Name Color Sex Ent Arrival Speed To Win Elg PdRaceAvg Speed
1 Milo Garver - CA 0309-AU20-SD SIL H 1 07:17:01.70 1033.571 00:00:00 Yes
2 Jenkins Racing - CA 0251-AU20-JENK 942 / GG BC H 1 07:17:12.00 1023.256 00:00:10 Lost
3 Sandstrom Brothers Loft - MN 0244-AU20-SBL COH BB H 1 07:17:24.50 1011.010 00:00:23 Yes
4 Cloux Loft - CO 20734-AU20-FH RC H 1 07:17:30.10 1005.619 00:00:28 Yes
5 Homberto Franko - CA 55499-MX20-MEX BBWF H 1 07:17:40.20 996.038 00:00:39 Yes
6 Guillermo Siordia - CA 0426-AU20-PAL BC H 1 07:18:05.90 972.465 00:01:04 Yes
7 Mesopotamia Loft - MN 4838-AU20-JEDD BB H 1 07:18:07.70 970.856 00:01:06 Yes
8 Alma Missiles Castro - AZ 2446-AU20-MISS BBPD H 1 07:18:24.40 956.175 00:01:23 Yes
9 Zulu Loft - CA 0760-AU20-4ACE BB H 1 07:19:22.50 908.387 00:02:21 Yes
10 Drama Queen Loft - TX 1008-AU20-GCI 8406 x 6062 BC H 1 07:19:26.60 905.195 00:02:25 Yes
11 Nemeth Family Loft - CA 0667-AU20-NEME BCSP H 1 07:19:29.80 902.718 00:02:28 Missing
12 Tim Brandon - CA 29738-AU20-JEDD BB H 1 07:19:31.60 901.332 00:02:30 Yes
13 A P C Loft - TX 20214-AU20-APC BCPD H 1 07:19:32.10 900.947 00:02:30 Yes
14 Lillie & Cecil - CA 2009-AU20-WEBE El Rey 1317x1809 BC C 1 07:19:33.20 900.102 00:02:31 Yes
15 Mesopotamia Loft - MN 0662-AU20-SD BB H 2 07:19:33.70 899.719 00:02:32 Yes
16 O C F Syndicate - CA 0265-AU20-OCF BC H 1 07:19:34.50 899.106 00:02:33 Yes
17 John V. Partridge - CA 2132-AU20-PASO Sky Schalie BC H 1 07:19:35.50 898.341 00:02:34 Yes
18 Los Banditos - CA 2451-AU20-LOSB BB H 1 07:19:36.00 897.959 00:02:34 Yes
19 O And L De Vries - ON 3586-AU20-OL BB H 1 07:19:37.70 896.663 00:02:36 Yes
20 Milestone Loft - CA 1320-AU20-SD BB H 1 07:19:38.20 896.282 00:02:37 Yes
20 Team Phoenix - AZ 0038-AU20-TPHO BBSP H 1 07:19:38.20 896.282 00:02:37 Yes
22 Homberto Franko - CA 55491-MX20-MEX BC H 2 07:19:39.90 894.991 00:02:38 Yes
23 Sterchi & Bieche - CA 0262-AU20-SR BBWF H 1 07:19:44.50 891.515 00:02:43 Yes
24 Scott Mc Callister - AZ 0706-AU20-DUTC BB H 1 07:19:44.60 891.440 00:02:43 Lost
25 Jsrl - CA 15222-AU20-JEDD BB H 1 07:19:45.10 891.064 00:02:43 Yes
26 Genesis Syndicate Loft - AZ 0223-AU20-GENE BBSP H 1 07:19:45.60 890.688 00:02:44 Yes
27 Oddballs - CA 0382-AU20-EAV BB H 1 07:19:47.00 889.638 00:02:45 Yes
28 Team Phoenix - AZ 0029-AU20-TPHO BB H 2 07:19:47.70 889.113 00:02:46 Yes
29 Jenkins Racing - CA 0269-AU20-JENK Lin BC H 2 07:19:48.30 888.664 00:02:47 Yes
30 Homberto Franko - CA 55492-MX20-MEX BC H 3 07:19:49.10 888.067 00:02:47 Lost
31 El Dorado Lofts Canada - BC 0261-AU20-SR COH BB H 1 07:19:50.30 887.171 00:02:49 Yes
32 Oddballs - CA 2228-AU20-FVC BC H 2 07:19:51.60 886.203 00:02:50 Yes
33 Silicon Valley Syndicate - CA 20050-AU20-SVS BB H 1 07:19:51.70 886.129 00:02:50 Yes
34 Christopher Loft - UT 20052-AU20-GS BB H 1 07:19:52.20 885.757 00:02:51 Yes
35 A-Lo Loft/Nemelka - UT 0075-AU20-ALO ☯️☯️☯️ DCWF H 1 07:19:52.30 885.683 00:02:51 Yes
36 Rude-Flip-Maker-Loft - CA 1224-AU20-SD BB H 1 07:19:52.80 885.312 00:02:51 Yes
37 Jones Boys - P J Loft - UT 2273-AU20-SLI BBWF H 1 07:19:54.40 884.126 00:02:53 Yes
38 O C F Syndicate - CA 0250-AU20-OCF BC H 2 07:19:55.30 883.460 00:02:54 Yes
39 Mojado Loft - AR 23434-AU20-ARPU DC H 1 07:19:56.70 882.427 00:02:55 Yes
40 De La O-Siino - CA 0195-AU20-COOK BB H 1 07:19:58.90 880.807 00:02:57 Yes
41 Los Banditos - CA 2454-AU20-LOSB BB H 2 07:20:00.70 879.487 00:02:59 Yes
42 Jones Boys - UT 0665-AU20-NEME COH BBSP H 1 07:20:01.30 879.048 00:03:00 Yes
43 Two-Be-Won - NV 20040-AU20-TBW 17040-18149 BC H 1 07:20:04.10 877.004 00:03:02 Lost
44 Tim Brandon - CA 29748-AU20-JEDD BC H 2 07:20:04.70 876.567 00:03:03 Yes
45 C & D Loft - CA 0009-AU20-PAL BC H 1 07:20:06.60 875.186 00:03:05 Yes
46 Duane Gragg - CA 0214-AU20-AUB BB H 1 07:20:15.00 869.136 00:03:13 Yes
47 A P C Loft - TX 20288-AU20-APC BC H 2 07:20:16.90 867.779 00:03:15 Yes
48 Hugo Avila Loft - CA 0032-AU20-SD BB H 1 07:20:18.40 866.710 00:03:17 Lost
49 Tim Brandon - CA 29759-AU20-JEDD DC H 3 07:20:22.10 864.086 00:03:20 Yes
50 Los Banditos - CA 2457-AU20-LOSB BC H 3 07:20:23.80 862.886 00:03:22 Yes
51 Jenkins Racing - CA 0291-AU20-JENK 44 / PRO BBWF H 3 07:20:26.40 861.057 00:03:25 Yes
52 El Dorado Loft - TX 23186-AU20-JEDD BLK H 1 07:20:28.00 859.935 00:03:26 Lost
53 Christopher Loft - UT 20051-AU20-GS BC H 2 07:20:29.30 859.025 00:03:28 Yes
54 Hawaiian Express - CA 0161-AU20-HAWE BC H 1 07:20:29.90 858.606 00:03:28 Yes
55 Hugo Avila Loft - CA 0018-AU20-SD GRIZ H 2 07:20:30.40 858.257 00:03:29 Yes
56 A P C Loft - TX 20287-AU20-APC BBWF H 3 07:20:30.90 857.909 00:03:29 Yes
57 Genesis Syndicate Loft - AZ 0246-AU20-GENE GRZ H 2 07:20:31.40 857.561 00:03:30 Yes
58 Lillie & Cecil - CA 2087-AU20-WEBE Hechicera 1351x1887 DC H 2 07:20:34.20 855.615 00:03:32 Yes
59 Jsrl - CA 15262-AU20-JEDD BB H 2 07:20:36.00 854.369 00:03:34 Yes
60 Mesopotamia Loft - MN 0686-AU20-SD BBSP H 3 07:20:39.10 852.231 00:03:37 Yes
61 Flying D Loft - TX 0594-AU20-FLYD Flyd 640 /Dutch 722 DC H 1 07:20:42.10 850.173 00:03:40 Yes
62 Jsrl - CA 15242-AU20-JEDD BCWF H 3 07:20:42.90 849.626 00:03:41 Yes
63 Drama Queen Loft - TX 1005-AU20-GCI 275 x 855 BBWF H 2 07:20:45.40 847.920 00:03:44 Yes
64 Jsrl - CA 15246-AU20-JEDD BB H 4 07:20:45.90 847.580 00:03:44 Yes
65 A P C Loft - TX 20252-AU20-APC SIL H 4 07:20:51.40 843.855 00:03:50 Yes
66 De La O-Siino - CA 0221-AU20-COOK BB H 2 07:20:54.80 841.568 00:03:53 Yes
67 Rude-Flip-Maker-Loft - CA 1225-AU20-SD BB H 2 07:21:26.90 820.577 00:04:25 Yes
68 Irma Derrick - CA 0055-AU20-DENT BBSP H 1 07:21:47.10 807.895 00:04:45 Yes
69 O C F Syndicate - CA 20027-AU20-JEDD DC H 3 07:22:16.60 790.064 00:05:15 Yes
70 De La O-Siino - CA 0184-AU20-COOK BB H 3 07:23:49.60 738.668 00:06:48 Yes
71 Genesis Syndicate Loft - AZ 0606-AU20-GENE GRZ H 3 07:23:51.80 737.533 00:06:50 Yes
72 Jsrl - CA 15263-AU20-JEDD BB H 5 07:23:56.40 735.171 00:06:55 Yes
73 Junior & Jt - 0829-AU20-SD BB H 1 07:23:56.90 734.915 00:06:55 Yes
74 C L & Patty Gage - TX 0275-AU20-DEN BCSP H 1 07:23:58.80 733.945 00:06:57 Yes
75 Jones Boys - P J Loft - UT 2269-AU20-SLI BB H 2 07:24:01.10 732.774 00:06:59 Yes
76 Steve Lance - CA 35979-AU20-JEDD BB H 1 07:24:01.90 732.367 00:07:00 Yes
77 C & D Loft - CA 0014-AU20-PAL BB H 2 07:24:03.90 731.353 00:07:02 Lost
78 De La O-Siino - CA 0191-AU20-COOK BB H 4 07:24:08.50 729.030 00:07:07 Yes
79 Los Banditos - CA 2468-AU20-LOSB BB H 4 07:24:20.00 723.288 00:07:18 Yes
80 Team Phoenix - AZ 0051-AU20-TPHO BB H 3 07:24:23.30 721.657 00:07:22 Yes
81 Dan & Greg Coury - AZ 0648-AU20-AONE BC H 1 07:24:25.60 720.524 00:07:24 Yes
82 Paco Loft - CA 0072-AU20-PACO DC H 1 07:24:32.90 716.953 00:07:31 Yes
83 Dan & Greg Coury - AZ 0562-AU20-AONE DC H 2 07:24:34.10 716.369 00:07:32 Yes
84 Mesopotamia Loft - MN 4833-AU20-JEDD BB H 4 07:24:43.90 711.638 00:07:42 Yes
85 Jsrl - CA 15287-AU20-JEDD BB H 6 07:25:28.00 691.099 00:08:26 Yes
86 Mesopotamia Loft - MN 0681-AU20-SD BB H 5 07:25:56.40 678.489 00:08:55 Yes
87 Team Phoenix - AZ 0022-AU20-TPHO BB H 4 07:26:12.40 671.585 00:09:11 Yes
88 B T C Racing - CA 17511-AU20-JEDD BB H 1 07:30:42.40 573.165 00:13:41 Yes
89 Two-Be-Won - NV 20008-AU20-TBW 2985-1687 BBPD H 2 07:30:43.90 572.699 00:13:42 Yes
90 Stephen Brothers - FL 0651-AU20-VTRE COH BC H 1 07:30:59.90 567.772 00:13:58 Yes
91 Tim Brandon - CA 29744-AU20-JEDD DCPD H 4 07:31:00.80 567.498 00:13:59 Yes
92 Mojado Loft - AR 23443-AU20-ARPU BC H 2 07:31:01.30 567.345 00:14:00 Yes
93 Dan Lionello - CA 0813-AU20-SB BC H 1 07:31:01.90 567.163 00:14:00 Yes
94 Rick Barker - CA 0564-AU20-PRO SIL H 1 07:31:02.40 567.010 00:14:01 Yes
95 Christopher Loft - UT 20057-AU20-GS BCSP H 3 07:31:02.90 566.858 00:14:01 Yes
96 Jones Boys - P J Loft - UT 2235-AU20-SLI BB H 3 07:31:04.30 566.432 00:14:03 Yes
97 Flying D Loft - TX 0534-AU20-FLYD Flyd 250 / Ccfr 186 BC H 2 07:31:04.40 566.402 00:14:03 Yes
98 Homberto Franko - CA 55500-AU20-FMC BC H 4 07:31:05.00 566.220 00:14:03 Yes
98 H-Y Loft - NV 12516-AU20-JEDD BBWF H 1 07:31:05.00 566.220 00:14:03 Yes
100 Jenkins Racing - CA 0207-AU20-JENK 469 / 79 sbl BBWF H 4 07:31:06.20 565.856 00:14:04 Yes

There are 529 bird records

Note: These Race Results are unofficial and subject to change until verified by the Race Committee and declared final.